SCP
0 0 0 0 0 0 0 0 0 0 0 0 0 0 0 0 0 0 0 0 0 0 0 0 0 0 0 0 0 0 0 0 0 0 0 0 0 0 0 0 0 0 0
0 0 0 0 0 0 0 0 0 0 0 0 0 0 0 0 0 0 0 0 0 0 0 0 0 0 0 0 0 0 0 0 0 0 0 0 0 0 0 0 0 0 0
0 0 0 0 0 0 0 0 0 0 0 0 0 0 0 0 0 0 0 0 0 0 0 0 0 0 0 0 0 0 0 0 0 0 0 0 0 0 0 0 0 0 0
0 0 0 0 0 0 0 0 0 0 0 0 0 0 0 0 0 0 0 0 0 0 0 0 0 0 0 0 0 0 0 0 0 0 0 0 0 0 0 -0 -0 -0 -0
0 0 0 0 0 0 0 0 0 0 0 0 0 0 0 0 0 0 0 0 0 0 0 0 0 0 0 0 0 0 0 0 0 0 0 0 0 0 0 0 0 0 0
0 0 0 0 0 0 0 0 0 0 0 0 0 0 0 0 0 0 0 0 0 0 0 0 0 0 0 0 0 0 0 0 0 0 0 0 0 0 0 0 0 0 0
0 0 0 0 0 0 0 0 0 0 0 0 0 0 0 0 0 0 0 0 0 0 0 0 0 0 0 0 0 0 0 0 0 0 0 0 0 0 0 0 0 0 0
0 0 0 0 0 0 0 0 0 0 0 0 0 0 0 0 0 0 0 0 0 0 0 0 0 0 0 0 0 0 0 0 0 0 0 0 0 0 0 0 0 0 0
0 0 0 0 0 0 0 0 0 0 0 0 0 0 0 0 0 0 0 0 0 0 0 0 0 0 0 0 0 0 0 0 0 0 0 0 0 -0 -0 -0 0 0 0
0 0 0 0 0 0 0 0 0 0 0 0 0 0 0 0 0 0 0 0 0 0 0 0 0 0 0 0 -0 -0 -0 -0 0 0 0 0 0 0 -0 0 0 0 0
0 0 0 0 0 0 0 0 0 0 0 0 0 0 0 0 0 0 0 0 0 0 0 0 0 0 0 0 0 -0 -0 -0 -0 -0 0 0 0 0 0 -0 0 0 0
0 0 0 0 0 0 0 0 0 0 0 0 0 0 0 0 0 0 0 0 0 0 0 0 0 0 0 0 0 0 0 -0 -0 -0 0 0 0 0 0 0 0 0 -0
0 0 0 0 0 0 0 0 0 0 0 0 0 0 0 0 0 0 0 0 0 0 0 0 0 0 0 0 0 0 0 0 0 0 0 -0 0 0 0 0 -0 -0 -0
0 0 0 0 0 0 0 0 0 0 0 0 0 0 0 0 0 0 0 0 0 0 0 0 0 0 0 0 0 0 0 0 0 0 0 -0 -0 -0 -0 -0 -0 0 0
0 0 0 0 0 0 0 0 0 0 0 0 0 0 0 0 0 0 0 0 0 0 0 0 0 0 0 0 0 0 0 0 0 0 -0 -0 0 -0 -0 -0 0 0 0
0 0 0 0 0 0 0 0 0 0 0 0 0 0 0 0 0 0 0 0 0 0 0 0 0 0 0 0 0 0 0 0 0 0 -0 0 -0 -0 -0 -0 -0 0 0
0 0 0 0 0 0 0 0 0 0 0 0 0 0 0 0 0 0 0 0 0 0 0 0 0 0 0 0 0 0 0 0 0 0 0 -0 -0 0 0 -0 0 0 0
0 0 0 0 0 0 0 0 0 0 0 0 0 0 0 0 0 0 0 0 0 0 0 0 0 0 0 0 0 0 0 0 0 0 0 -0 0 0 0 0 0 0 0
0 0 0 0 0 0 0 0 0 0 0 0 0 0 0 0 0 0 0 0 0 0 0 0 0 0 0 0 0 -0 0 0 -0 0 -0 0 0 0 0 0 0 0 -0
0 0 0 0 0 0 0 0 0 0 0 0 0 0 0 0 0 0 0 0 0 0 0 0 0 0 -0 -0 -0 0 -0 -0 -0 0 0 0 0 0 0 0 0 0 0
0 0 0 0 0 0 0 0 0 0 0 0 0 0 0 0 0 0 -0 -0 0 0 0 0 0 0 0 0 0 0 -0 0 0 0 0 0 0 0 0 0 0 0 0
0 0 0 0 0 0 0 0 0 -0 -0 -0 0 0 0 0 0 -0 -0 0 -0 -0 0 0 0 0 0 0 0 0 0 0 0 0 0 0 0 0 0 0 0 0 0
0 0 0 0 0 0 0 0 0 -0 -0 -0 0 0 0 0 -0 -0 -0 -0 -0 -0 0 0 0 0 0 0 0 0 0 0 0 0 0 0 0 0 0 0 0 0 0
0 0 0 0 0 0 0 0 0 0 0 -0 -0 0 0 0 0 -0 0 0 0 0 0 0 0 0 0 0 0 0 0 0 0 0 0 0 0 0 0 0 0 0 0
0 0 0 0 0 0 0 0 -0 0 0 0 0 0 0 0 0 0 0 0 0 0 0 0 0 0 0 0 0 0 0 0 0 0 0 0 0 0 0 0 0 0 0
0 0 0 0 0 0 0 -0 -0 -0 0 0 0 0 0 0 0 0 0 0 0 0 0 0 0 0 0 0 0 0 0 0 0 0 0 0 0 0 0 0 0 0 0
Wind_Speed_500mb
52 53 57 61 56 47 36 17 5 12 13 14 9 34 29 27 32 37 49 52 48 51 57 61 67 72 73 72 66 59 55 53 46 51 48 45 38 22 38 52 36 30 30
48 48 49 58 50 40 25 3 3 10 10 24 21 36 33 34 37 47 50 50 52 53 56 62 69 69 71 67 57 51 50 47 42 43 48 33 39 22 55 45 25 38 36
51 50 56 54 43 29 14 13 10 19 30 19 30 34 34 43 43 47 48 48 49 54 60 67 68 67 65 57 51 45 42 47 46 39 28 21 18 58 52 47 33 55 50
43 49 52 46 41 22 9 45 35 35 20 22 34 34 40 46 49 51 49 48 52 60 64 65 67 67 55 50 48 44 45 44 43 41 29 27 39 38 37 64 59 59 60
40 48 48 36 28 12 22 19 23 33 31 27 38 42 46 52 53 53 55 56 59 60 62 64 66 56 48 47 48 41 39 35 37 35 34 33 37 35 46 51 66 69 55
35 33 30 25 14 15 19 26 29 30 28 33 42 45 52 56 56 54 56 61 67 62 60 56 50 42 36 37 36 36 34 33 32 31 28 26 31 39 41 51 57 62 65
34 24 11 3 7 6 10 13 15 20 27 39 44 45 45 46 50 57 63 65 57 44 40 41 33 28 27 27 33 39 39 34 32 31 31 26 30 32 38 45 52 57 60
20 22 28 26 21 17 9 11 16 26 39 46 47 48 51 53 55 55 48 39 30 28 32 29 24 28 32 39 38 42 37 35 32 34 30 29 29 27 35 40 45 54 42
39 34 27 21 19 18 23 30 35 39 43 45 45 44 44 43 37 31 28 25 24 27 27 23 27 30 29 31 36 41 38 35 30 28 29 29 28 28 35 40 31 32 31
35 28 19 15 25 33 38 42 44 40 34 31 30 29 28 24 23 22 24 24 25 26 28 25 25 26 28 25 32 40 38 27 25 29 23 24 22 22 28 27 24 23 22
21 13 12 20 26 34 40 41 38 31 26 23 21 18 19 22 24 26 26 27 25 28 27 24 24 24 27 24 24 33 39 28 25 31 27 29 28 22 26 27 26 25 19
11 18 16 19 32 39 43 41 34 25 20 15 16 19 20 23 24 24 23 24 26 25 25 24 24 21 25 28 23 25 32 34 36 33 33 36 37 34 28 30 27 26 22
11 13 23 31 38 38 34 28 23 15 14 18 21 20 20 22 27 27 23 26 25 24 24 24 22 21 25 27 20 26 27 27 28 31 34 38 38 33 30 29 28 23 18
13 22 31 37 39 35 29 23 11 15 18 20 18 21 23 27 33 27 22 23 24 25 23 22 20 21 26 26 20 19 21 24 27 29 34 39 39 36 30 29 28 18 14
18 26 38 42 38 31 16 14 17 20 19 17 18 22 24 27 29 25 26 28 27 23 19 22 19 21 27 29 25 25 27 27 25 28 38 46 45 33 25 24 26 15 9
15 31 41 42 31 16 15 22 23 21 18 14 19 26 27 32 32 29 29 31 28 23 18 23 25 30 28 29 30 30 24 21 27 27 41 51 48 30 18 13 20 10 6
28 39 40 27 14 17 20 22 23 20 17 15 21 25 28 34 36 31 29 29 29 26 22 25 29 33 28 38 37 31 19 18 25 28 46 50 45 25 12 12 14 7 7
36 37 19 13 14 18 20 19 19 18 20 22 23 25 27 32 35 35 34 37 34 31 28 25 27 33 32 34 34 31 27 23 24 32 43 43 35 25 18 14 11 8 16
34 21 14 17 19 21 23 26 26 28 31 32 32 29 28 29 32 36 39 39 32 31 32 33 33 35 36 32 31 29 25 20 29 34 34 31 28 24 17 14 14 19 22
20 6 14 18 19 24 29 28 32 37 38 40 38 31 26 27 30 35 38 38 38 34 31 31 31 33 36 25 15 16 21 23 25 26 19 23 24 23 21 16 23 29 28
10 12 17 21 27 31 29 28 32 38 40 38 35 24 20 25 30 33 38 38 33 27 28 24 27 27 31 19 11 17 20 19 22 20 20 29 28 29 26 20 24 32 33
15 19 23 25 26 28 33 36 34 34 38 32 32 26 25 24 24 31 37 35 27 23 23 27 23 25 23 18 17 17 18 21 20 25 28 27 27 29 31 34 33 38 35
18 22 25 27 22 31 32 37 37 37 33 31 27 25 22 25 34 33 30 34 31 31 31 26 17 22 24 22 20 19 21 22 26 28 28 29 30 33 34 35 35 27 27
20 24 29 28 29 33 26 32 38 34 29 23 26 22 27 29 31 32 31 28 32 41 40 26 22 19 23 21 19 22 24 26 30 31 34 34 33 32 30 31 25 27 23
26 29 28 27 31 27 27 34 37 32 26 22 25 27 31 27 29 29 27 25 30 35 36 37 32 24 26 27 28 29 28 33 32 35 37 39 42 40 35 34 32 32 33
31 26 27 29 31 30 31 34 33 32 27 23 28 25 24 26 24 24 26 31 37 38 36 40 35 38 36 34 33 35 36 37 38 41 43 42 39 38 39 40 41 41 42
Wind_Direction_500mb
203 205 203 178 174 170 175 160 284 221 229 261 288 275 274 279 293 311 320 321 322 322 321 323 323 323 322 323 323 320 319 322 327 332 328 335 330 334 329 326 322 315 321
200 200 183 175 172 173 162 313 111 194 283 285 293 261 277 297 308 312 320 318 314 312 315 320 320 320 319 322 320 318 319 323 332 327 330 329 336 317 326 334 329 334 330
180 173 169 168 165 163 202 94 8 312 273 279 266 281 293 300 301 312 311 305 307 313 317 317 318 319 321 322 322 321 319 324 316 317 322 323 318 326 331 333 321 325 325
169 168 169 169 171 155 355 323 263 285 261 254 264 279 290 292 301 306 304 305 309 311 313 316 319 320 319 321 323 322 317 318 314 317 319 311 317 319 325 323 329 328 326
176 170 171 177 175 221 293 311 253 269 251 260 272 282 288 293 296 299 299 299 301 309 313 316 318 315 317 318 322 323 321 322 318 318 316 317 316 323 325 317 325 329 341
155 153 164 181 223 260 289 253 248 255 263 273 281 289 294 289 290 290 295 301 308 313 318 319 318 318 321 327 334 336 336 329 325 321 315 307 318 316 320 316 319 328 331
130 127 107 273 267 254 229 235 253 268 282 288 293 288 286 289 297 303 307 310 312 323 337 342 351 355 347 340 337 339 330 327 327 327 324 311 303 309 313 313 316 321 327
121 110 109 108 99 86 52 11 332 305 291 289 288 289 293 298 305 311 315 319 327 328 334 346 7 350 336 338 339 343 340 333 324 321 316 323 321 312 313 314 313 317 323
112 106 93 71 43 11 355 334 320 311 302 297 297 301 306 312 319 321 325 334 330 331 336 331 341 346 346 348 357 350 345 335 337 333 324 321 325 309 307 309 312 315 310
114 106 85 34 354 333 336 331 324 316 310 311 314 325 333 341 343 340 331 329 331 331 336 335 336 339 346 353 358 357 352 356 6 4 2 349 335 323 321 325 332 333 326
113 94 25 330 321 329 332 332 336 333 333 337 341 355 354 345 339 333 331 331 333 326 327 329 333 339 348 349 355 358 7 10 359 1 4 8 8 359 351 344 345 344 354
67 2 349 343 335 340 344 342 341 340 345 2 351 343 343 343 344 340 339 337 336 331 324 327 333 334 343 345 343 357 6 11 19 17 6 12 9 8 355 352 345 348 355
332 325 343 346 345 338 335 335 338 351 359 350 348 352 350 349 345 340 336 337 337 338 335 330 334 331 333 340 348 349 355 359 4 0 356 357 354 358 358 348 347 353 358
336 326 334 341 341 340 335 338 356 355 352 352 2 358 352 350 349 352 348 341 337 338 338 344 335 335 337 337 334 329 333 341 347 346 354 353 349 347 346 352 357 349 12
294 325 338 339 335 334 346 3 350 343 347 353 354 357 355 348 351 353 353 351 347 346 347 343 342 339 340 342 338 322 328 328 335 336 347 351 347 341 336 344 353 7 49
318 334 335 331 336 358 359 353 349 344 343 350 0 360 359 357 356 351 351 351 350 347 343 345 344 346 347 351 344 331 328 324 322 326 341 348 346 346 343 339 346 16 111
341 335 333 339 10 1 356 354 356 357 357 353 351 350 347 357 3 359 351 346 348 344 330 337 344 345 350 350 346 348 338 318 326 336 343 345 346 359 0 346 355 28 139
333 336 351 5 357 358 357 353 350 348 344 337 333 342 348 346 353 346 342 345 340 335 330 326 325 327 326 332 333 342 345 331 319 342 342 350 360 15 18 10 22 62 110
334 343 356 358 359 355 349 345 341 335 332 329 333 337 330 336 335 340 343 345 341 335 336 330 324 320 315 313 322 328 341 355 342 338 347 360 8 16 33 40 88 97 103
335 18 359 356 352 346 342 342 344 339 333 326 319 322 324 324 332 344 346 345 340 336 329 325 328 330 336 310 311 329 352 350 345 353 11 10 25 39 44 86 107 116 109
44 7 357 353 346 342 354 344 343 348 348 352 359 333 315 327 341 347 345 344 346 351 344 343 339 347 4 13 17 20 6 9 11 30 31 32 50 49 57 85 104 113 112
20 8 356 351 343 339 343 346 345 349 345 349 349 347 332 331 344 343 343 348 349 354 348 356 1 9 18 34 37 39 33 23 46 42 45 52 57 59 72 84 95 107 98
13 2 2 356 2 356 351 359 352 346 341 343 347 346 354 349 349 347 348 358 4 4 358 5 19 37 41 49 55 58 36 61 53 57 59 67 71 80 82 85 98 88 101
11 356 345 344 348 346 356 356 348 344 348 348 355 358 347 344 346 353 360 9 19 42 42 44 48 58 56 63 63 52 68 65 63 71 75 74 81 82 84 95 91 82 76
358 359 4 359 0 2 348 352 352 357 352 350 355 350 347 355 3 6 13 36 43 32 32 53 57 63 64 65 67 77 74 66 75 85 86 81 78 75 71 79 82 82 83
359 4 4 6 2 353 348 349 350 350 347 341 342 353 5 3 18 43 45 65 65 47 44 56 63 71 79 86 88 78 73 76 82 84 78 74 71 73 73 76 80 84 85
Wind_Speed_850mb
52 53 57 61 56 47 36 17 5 12 13 14 9 34 29 27 32 37 49 52 48 51 57 61 67 72 73 72 66 59 55 53 46 51 48 45 38 22 38 52 36 30 30
48 48 49 58 50 40 25 3 3 10 10 24 21 36 33 34 37 47 50 50 52 53 56 62 69 69 71 67 57 51 50 47 42 43 48 33 39 22 55 45 25 38 36
51 50 56 54 43 29 14 13 10 19 30 19 30 34 34 43 43 47 48 48 49 54 60 67 68 67 65 57 51 45 42 47 46 39 28 21 18 58 52 47 33 55 50
43 49 52 46 41 22 9 45 35 35 20 22 34 34 40 46 49 51 49 48 52 60 64 65 67 67 55 50 48 44 45 44 43 41 29 27 39 38 37 64 59 59 60
40 48 48 36 28 12 22 19 23 33 31 27 38 42 46 52 53 53 55 56 59 60 62 64 66 56 48 47 48 41 39 35 37 35 34 33 37 35 46 51 66 69 55
35 33 30 25 14 15 19 26 29 30 28 33 42 45 52 56 56 54 56 61 67 62 60 56 50 42 36 37 36 36 34 33 32 31 28 26 31 39 41 51 57 62 65
34 24 11 3 7 6 10 13 15 20 27 39 44 45 45 46 50 57 63 65 57 44 40 41 33 28 27 27 33 39 39 34 32 31 31 26 30 32 38 45 52 57 60
20 22 28 26 21 17 9 11 16 26 39 46 47 48 51 53 55 55 48 39 30 28 32 29 24 28 32 39 38 42 37 35 32 34 30 29 29 27 35 40 45 54 42
39 34 27 21 19 18 23 30 35 39 43 45 45 44 44 43 37 31 28 25 24 27 27 23 27 30 29 31 36 41 38 35 30 28 29 29 28 28 35 40 31 32 31
35 28 19 15 25 33 38 42 44 40 34 31 30 29 28 24 23 22 24 24 25 26 28 25 25 26 28 25 32 40 38 27 25 29 23 24 22 22 28 27 24 23 22
21 13 12 20 26 34 40 41 38 31 26 23 21 18 19 22 24 26 26 27 25 28 27 24 24 24 27 24 24 33 39 28 25 31 27 29 28 22 26 27 26 25 19
11 18 16 19 32 39 43 41 34 25 20 15 16 19 20 23 24 24 23 24 26 25 25 24 24 21 25 28 23 25 32 34 36 33 33 36 37 34 28 30 27 26 22
11 13 23 31 38 38 34 28 23 15 14 18 21 20 20 22 27 27 23 26 25 24 24 24 22 21 25 27 20 26 27 27 28 31 34 38 38 33 30 29 28 23 18
13 22 31 37 39 35 29 23 11 15 18 20 18 21 23 27 33 27 22 23 24 25 23 22 20 21 26 26 20 19 21 24 27 29 34 39 39 36 30 29 28 18 14
18 26 38 42 38 31 16 14 17 20 19 17 18 22 24 27 29 25 26 28 27 23 19 22 19 21 27 29 25 25 27 27 25 28 38 46 45 33 25 24 26 15 9
15 31 41 42 31 16 15 22 23 21 18 14 19 26 27 32 32 29 29 31 28 23 18 23 25 30 28 29 30 30 24 21 27 27 41 51 48 30 18 13 20 10 6
28 39 40 27 14 17 20 22 23 20 17 15 21 25 28 34 36 31 29 29 29 26 22 25 29 33 28 38 37 31 19 18 25 28 46 50 45 25 12 12 14 7 7
36 37 19 13 14 18 20 19 19 18 20 22 23 25 27 32 35 35 34 37 34 31 28 25 27 33 32 34 34 31 27 23 24 32 43 43 35 25 18 14 11 8 16
34 21 14 17 19 21 23 26 26 28 31 32 32 29 28 29 32 36 39 39 32 31 32 33 33 35 36 32 31 29 25 20 29 34 34 31 28 24 17 14 14 19 22
20 6 14 18 19 24 29 28 32 37 38 40 38 31 26 27 30 35 38 38 38 34 31 31 31 33 36 25 15 16 21 23 25 26 19 23 24 23 21 16 23 29 28
10 12 17 21 27 31 29 28 32 38 40 38 35 24 20 25 30 33 38 38 33 27 28 24 27 27 31 19 11 17 20 19 22 20 20 29 28 29 26 20 24 32 33
15 19 23 25 26 28 33 36 34 34 38 32 32 26 25 24 24 31 37 35 27 23 23 27 23 25 23 18 17 17 18 21 20 25 28 27 27 29 31 34 33 38 35
18 22 25 27 22 31 32 37 37 37 33 31 27 25 22 25 34 33 30 34 31 31 31 26 17 22 24 22 20 19 21 22 26 28 28 29 30 33 34 35 35 27 27
20 24 29 28 29 33 26 32 38 34 29 23 26 22 27 29 31 32 31 28 32 41 40 26 22 19 23 21 19 22 24 26 30 31 34 34 33 32 30 31 25 27 23
26 29 28 27 31 27 27 34 37 32 26 22 25 27 31 27 29 29 27 25 30 35 36 37 32 24 26 27 28 29 28 33 32 35 37 39 42 40 35 34 32 32 33
31 26 27 29 31 30 31 34 33 32 27 23 28 25 24 26 24 24 26 31 37 38 36 40 35 38 36 34 33 35 36 37 38 41 43 42 39 38 39 40 41 41 42
Wind_Direction_850mb
203 205 203 178 174 170 175 160 284 221 229 261 288 275 274 279 293 311 320 321 322 322 321 323 323 323 322 323 323 320 319 322 327 332 328 335 330 334 329 326 322 315 321
200 200 183 175 172 173 162 313 111 194 283 285 293 261 277 297 308 312 320 318 314 312 315 320 320 320 319 322 320 318 319 323 332 327 330 329 336 317 326 334 329 334 330
180 173 169 168 165 163 202 94 8 312 273 279 266 281 293 300 301 312 311 305 307 313 317 317 318 319 321 322 322 321 319 324 316 317 322 323 318 326 331 333 321 325 325
169 168 169 169 171 155 355 323 263 285 261 254 264 279 290 292 301 306 304 305 309 311 313 316 319 320 319 321 323 322 317 318 314 317 319 311 317 319 325 323 329 328 326
176 170 171 177 175 221 293 311 253 269 251 260 272 282 288 293 296 299 299 299 301 309 313 316 318 315 317 318 322 323 321 322 318 318 316 317 316 323 325 317 325 329 341
155 153 164 181 223 260 289 253 248 255 263 273 281 289 294 289 290 290 295 301 308 313 318 319 318 318 321 327 334 336 336 329 325 321 315 307 318 316 320 316 319 328 331
130 127 107 273 267 254 229 235 253 268 282 288 293 288 286 289 297 303 307 310 312 323 337 342 351 355 347 340 337 339 330 327 327 327 324 311 303 309 313 313 316 321 327
121 110 109 108 99 86 52 11 332 305 291 289 288 289 293 298 305 311 315 319 327 328 334 346 7 350 336 338 339 343 340 333 324 321 316 323 321 312 313 314 313 317 323
112 106 93 71 43 11 355 334 320 311 302 297 297 301 306 312 319 321 325 334 330 331 336 331 341 346 346 348 357 350 345 335 337 333 324 321 325 309 307 309 312 315 310
114 106 85 34 354 333 336 331 324 316 310 311 314 325 333 341 343 340 331 329 331 331 336 335 336 339 346 353 358 357 352 356 6 4 2 349 335 323 321 325 332 333 326
113 94 25 330 321 329 332 332 336 333 333 337 341 355 354 345 339 333 331 331 333 326 327 329 333 339 348 349 355 358 7 10 359 1 4 8 8 359 351 344 345 344 354
67 2 349 343 335 340 344 342 341 340 345 2 351 343 343 343 344 340 339 337 336 331 324 327 333 334 343 345 343 357 6 11 19 17 6 12 9 8 355 352 345 348 355
332 325 343 346 345 338 335 335 338 351 359 350 348 352 350 349 345 340 336 337 337 338 335 330 334 331 333 340 348 349 355 359 4 0 356 357 354 358 358 348 347 353 358
336 326 334 341 341 340 335 338 356 355 352 352 2 358 352 350 349 352 348 341 337 338 338 344 335 335 337 337 334 329 333 341 347 346 354 353 349 347 346 352 357 349 12
294 325 338 339 335 334 346 3 350 343 347 353 354 357 355 348 351 353 353 351 347 346 347 343 342 339 340 342 338 322 328 328 335 336 347 351 347 341 336 344 353 7 49
318 334 335 331 336 358 359 353 349 344 343 350 0 360 359 357 356 351 351 351 350 347 343 345 344 346 347 351 344 331 328 324 322 326 341 348 346 346 343 339 346 16 111
341 335 333 339 10 1 356 354 356 357 357 353 351 350 347 357 3 359 351 346 348 344 330 337 344 345 350 350 346 348 338 318 326 336 343 345 346 359 0 346 355 28 139
333 336 351 5 357 358 357 353 350 348 344 337 333 342 348 346 353 346 342 345 340 335 330 326 325 327 326 332 333 342 345 331 319 342 342 350 360 15 18 10 22 62 110
334 343 356 358 359 355 349 345 341 335 332 329 333 337 330 336 335 340 343 345 341 335 336 330 324 320 315 313 322 328 341 355 342 338 347 360 8 16 33 40 88 97 103
335 18 359 356 352 346 342 342 344 339 333 326 319 322 324 324 332 344 346 345 340 336 329 325 328 330 336 310 311 329 352 350 345 353 11 10 25 39 44 86 107 116 109
44 7 357 353 346 342 354 344 343 348 348 352 359 333 315 327 341 347 345 344 346 351 344 343 339 347 4 13 17 20 6 9 11 30 31 32 50 49 57 85 104 113 112
20 8 356 351 343 339 343 346 345 349 345 349 349 347 332 331 344 343 343 348 349 354 348 356 1 9 18 34 37 39 33 23 46 42 45 52 57 59 72 84 95 107 98
13 2 2 356 2 356 351 359 352 346 341 343 347 346 354 349 349 347 348 358 4 4 358 5 19 37 41 49 55 58 36 61 53 57 59 67 71 80 82 85 98 88 101
11 356 345 344 348 346 356 356 348 344 348 348 355 358 347 344 346 353 360 9 19 42 42 44 48 58 56 63 63 52 68 65 63 71 75 74 81 82 84 95 91 82 76
358 359 4 359 0 2 348 352 352 357 352 350 355 350 347 355 3 6 13 36 43 32 32 53 57 63 64 65 67 77 74 66 75 85 86 81 78 75 71 79 82 82 83
359 4 4 6 2 353 348 349 350 350 347 341 342 353 5 3 18 43 45 65 65 47 44 56 63 71 79 86 88 78 73 76 82 84 78 74 71 73 73 76 80 84 85